Weather History for Alliance, NE

Change the Weather History Date:

Wednesday, January 2, 2013

  Actual Average Record
Temperature  
Mean Temperature 25 °F 23 °F  
Max Temperature 31 °F 38 °F 70 °F (1997)
Min Temperature 19 °F 9 °F -24 °F (1912)
Degree Days  
Heating Degree Days 40 42  
Month to date heating degree days 92 84  
Since 1 July heating degree days 2896 3166  
Moisture  
Dew Point 18 °F    
Average Humidity 69    
Maximum Humidity 84    
Minimum Humidity 53    
Precipitation  
Precipitation T in 0.00 in 0.33 in (1972)
Month to date precipitation T 0.01  
Year to date precipitation T 0.01  
Sea Level Pressure  
Sea Level Pressure 30.21 in    
Wind  
Wind Speed 17 mph (NW)    
Max Wind Speed 33 mph    
Max Gust Speed 40 mph    
Visibility 7 miles    
Events Snow    
T = Trace of Precipitation, MM = Missing Value Source: NWS Daily Summary

Daily Weather History Graph

Daily Weather History Graph

Search for Another Location

Airport:

Trip Planner

Search our weather history database for the weather conditions in past years. The results will help you decide how hot, cold, wet, or windy it might be!

Date:

Astronomy

Jan. 02, 2013 Rise Set
Actual Time 7:19 AM MST 4:31 PM MST
Civil Twilight 6:48 AM MST 5:03 PM MST
Nautical Twilight 6:12 AM MST 5:38 PM MST
Astronomical Twilight 5:39 AM MST 6:12 PM MST
Moon 10:12 PM MST (1/2) 9:56 AM MST (1/2)
Length of Visible Light 10h 15m
Length of Day
9h 11m
Waning Gibbous, 74% of the Moon is Illuminated
Jan 2
Waning Gibbous
Jan 4
Last Quarter
Jan 11
New
Jan 18
First Quarter
Jan 26
Full

Hourly Weather History & Observations

Time (MST) Temp. Windchill Dew Point Humidity Pressure Visibility Wind Dir Wind Speed Gust Speed Precip Events Conditions
12:53 AM 27.0 °F 13.5 °F 21.9 °F 81% 30.13 in 9.0 mi NNW 19.6 mph 25.3 mph 0.00 in   Overcast
1:53 AM 27.0 °F 15.2 °F 21.9 °F 81% 30.15 in 4.0 mi NNW 15.0 mph - 0.00 in Snow Light Snow
2:53 AM 26.1 °F 14.0 °F 21.9 °F 84% 30.15 in 4.0 mi NW 15.0 mph - 0.00 in Snow Light Snow
3:53 AM 27.0 °F 14.7 °F 21.9 °F 81% 30.15 in 7.0 mi NW 16.1 mph 25.3 mph 0.00 in Snow Light Snow
4:49 AM 24.8 °F 14.0 °F 21.2 °F 86% 30.06 in 10.0 mi WNW 11.5 mph - 0.00 in   Overcast
4:53 AM 24.8 °F 13.4 °F 19.4 °F 80% 30.06 in 10.0 mi WNW 12.7 mph - N/A   Overcast
5:19 AM 26.6 °F 14.7 °F 19.4 °F 74% 30.07 in 10.0 mi WNW 15.0 mph - N/A   Overcast
5:53 AM 26.1 °F 14.5 °F 19.9 °F 78% 30.22 in 7.0 mi WNW 13.8 mph 24.2 mph 0.00 in Snow Light Snow
6:53 AM 24.1 °F 11.0 °F 18.0 °F 77% 30.23 in 10.0 mi NW 16.1 mph - 0.00 in   Overcast
7:53 AM 26.1 °F 12.3 °F 18.0 °F 71% 30.22 in 10.0 mi NW 19.6 mph 29.9 mph N/A   Overcast
8:53 AM 25.0 °F 12.6 °F 19.0 °F 78% 30.22 in 10.0 mi WNW 15.0 mph - N/A   Mostly Cloudy
9:53 AM 30.0 °F 16.6 °F 19.0 °F 64% 30.20 in 10.0 mi WNW 23.0 mph 34.5 mph N/A   Mostly Cloudy
10:53 AM 28.9 °F 15.4 °F 17.1 °F 61% 30.19 in 10.0 mi NW 21.9 mph 32.2 mph N/A   Overcast
11:53 AM 30.0 °F 16.3 °F 17.1 °F 59% 30.17 in 10.0 mi NW 24.2 mph 33.4 mph N/A   Overcast
12:53 PM 30.0 °F 16.0 °F 16.0 °F 56% 30.15 in 10.0 mi WNW 25.3 mph 32.2 mph N/A   Clear
1:53 PM 30.0 °F 14.9 °F 15.1 °F 54% 30.16 in 10.0 mi NW 29.9 mph 38.0 mph 0.01 in   Clear
2:53 PM 28.0 °F 13.6 °F 14.0 °F 56% 30.19 in 10.0 mi NW 24.2 mph 31.1 mph N/A   Overcast
3:53 PM 28.0 °F 15.7 °F 14.0 °F 56% 30.20 in 10.0 mi NW 17.3 mph - N/A   Overcast
4:53 PM 24.1 °F 12.0 °F 18.0 °F 77% 30.23 in 10.0 mi NNW 13.8 mph - N/A   Overcast
5:31 PM 24.8 °F 10.3 °F 19.4 °F 80% 30.14 in 3.0 mi NNW 20.7 mph 26.5 mph 0.00 in Snow Light Snow
5:43 PM 24.8 °F 12.4 °F 19.4 °F 80% 30.15 in 2.5 mi NNW 15.0 mph - 0.00 in Snow Light Snow
5:53 PM 23.0 °F 10.1 °F 19.9 °F 88% 30.26 in 3.0 mi NNW 15.0 mph - 0.00 in Snow Light Snow
6:06 PM 23.0 °F 9.6 °F 19.4 °F 86% 30.16 in 9.0 mi NNW 16.1 mph 21.9 mph 0.00 in   Overcast
6:53 PM 21.0 °F 7.1 °F 16.0 °F 81% 30.30 in 7.0 mi NNW 16.1 mph - 0.00 in Snow Light Snow
7:27 PM 21.2 °F 10.1 °F 17.6 °F 86% 30.18 in 7.0 mi North 10.4 mph - 0.00 in Snow Light Snow
7:53 PM 21.0 °F 11.4 °F 17.1 °F 85% 30.32 in 5.0 mi NNW 8.1 mph - 0.00 in Snow Light Snow
8:53 PM 21.0 °F 10.6 °F 15.1 °F 78% 30.35 in 9.0 mi NNW 9.2 mph - 0.00 in Snow Light Snow
9:53 PM 19.9 °F 7.3 °F 15.1 °F 81% 30.36 in 9.0 mi North 12.7 mph - 0.00 in Snow Light Snow
10:53 PM 19.9 °F 11.1 °F 16.0 °F 85% 30.38 in 3.0 mi North 6.9 mph - 0.00 in Snow Light Snow
11:12 PM 19.4 °F 8.6 °F 15.8 °F 86% 30.27 in 2.5 mi North 9.2 mph - 0.00 in Snow Light Snow
11:19 PM 19.4 °F 8.6 °F 15.8 °F 86% 30.27 in 2.0 mi North 9.2 mph - 0.00 in Snow Light Snow
11:31 PM 19.4 °F 9.5 °F 15.8 °F 86% 30.26 in 1.8 mi NNW 8.1 mph - 0.00 in Snow Light Snow
11:42 PM 19.4 °F 9.5 °F 15.8 °F 86% 30.27 in 2.5 mi North 8.1 mph - 0.00 in Snow Light Snow
11:49 PM 19.4 °F 8.6 °F 15.8 °F 86% 30.27 in 5.0 mi North 9.2 mph - 0.00 in Snow Light Snow
11:53 PM 19.4 °F 7.9 °F 15.8 °F 86% 30.27 in 6.0 mi North 10.4 mph - N/A Snow Light Snow